FW0527 Weather Reports


time (UTC)temp
C
wind
direction
speed
KPH
gust
KPH
rain 1hr
cm
rain 24hr
cm
rain mn
cm
humidity
%
barometer
mb
20260904234550 25 304 4.8 20.9 0.00 0.00 0.00 40 1011.8
20260904233046 25 313 1.6 22.5 0.00 0.00 0.00 39 1011.9
20260904231544 25 298 6.4 19.3 0.00 0.00 0.00 38 1011.8
20260904230043 26 306 6.4 19.3 0.00 0.00 0.00 37 1011.9
20260904224542 26 313 6.4 22.5 0.00 0.00 0.00 35 1011.9
20260904223048 27 281 1.6 11.3 0.00 0.00 0.00 32 1011.9
20260904221547 27 255 0.0 6.4 0.00 0.00 0.00 30 1012.2
20260904220041 27 273 0.0 20.9 0.00 0.00 0.00 28 1012.2
20260904214539 27 246 1.6 27.4 0.00 0.00 0.00 29 1012.3
20260904213033 28 288 6.4 19.3 0.00 0.00 0.00 27 1012.2
20260904211535 30 283 3.2 19.3 0.00 0.00 0.00 25 1012.3
20260904210028 30 170 0.0 14.5 0.00 0.00 0.00 22 1012.5
20260904204528 30 317 1.6 12.9 0.00 0.00 0.00 22 1012.4
20260904203030 30 237 0.0 6.4 0.00 0.00 0.00 20 1012.4
20260904201529 30 263 1.6 12.9 0.00 0.00 0.00 18 1012.5
20260904200019 30 234 0.0 4.8 0.00 0.00 0.00 18 1012.8
20260904194533 29 211 0.0 0.0 0.00 0.00 0.00 17 1012.9
20260904193032 28 194 1.6 12.9 0.00 0.00 0.00 17 1013.2
20260904191513 28 150 0.0 8.0 0.00 0.00 0.00 17 1013.3
20260904190010 28 195 0.0 12.9 0.00 0.00 0.00 17 1013.2
20260904184510 28 260 0.0 8.0 0.00 0.00 0.00 17 1013.3
20260904183008 27 159 0.0 0.0 0.00 0.00 0.00 18 1013.2
20260904181503 27 223 0.0 0.0 0.00 0.00 0.00 18 1013.5
20260904174559 26 215 0.0 0.0 0.00 0.00 0.00 20 1013.5
20260904173103 26 207 0.0 0.0 0.00 0.00 0.00 21 1013.4
20260904171552 25 197 0.0 0.0 0.00 0.00 0.00 22 1013.3
20260904170049 25 196 0.0 0.0 0.00 0.00 0.00 21 1013.1
20260904164546 24 190 0.0 0.0 0.00 0.00 0.00 20 1013.0
20260904163041 23 125 0.0 0.0 0.00 0.00 0.00 19 1012.9
20260904161544 21 122 0.0 0.0 0.00 0.00 0.00 20 1012.8
20260904160036 19 122 0.0 0.0 0.00 0.00 0.00 22 1012.6
20260904154528 16 122 0.0 0.0 0.00 0.00 0.00 24 1012.7
20260904153026 14 122 0.0 0.0 0.00 0.00 0.00 29 1012.7
20260904151533 12 122 0.0 0.0 0.00 0.00 0.00 38 1012.5
20260904150015 11 122 0.0 0.0 0.00 0.00 0.00 42 1012.3
20260904144512 10 121 0.0 0.0 0.00 0.00 0.00 47 1012.2
20260904143010 10 121 0.0 0.0 0.00 0.00 0.00 46 1012.0
20260904141509 9 278 0.0 0.0 0.00 0.00 0.00 45 1011.9
20260904140007 8 294 0.0 0.0 0.00 0.00 0.00 45 1011.7
20260904134506 8 294 0.0 0.0 0.00 0.00 0.00 51 1011.7
20260904133005 8 294 0.0 0.0 0.00 0.00 0.00 50 1011.7
20260904131503 9 294 0.0 0.0 0.00 0.00 0.00 49 1011.7
20260904130002 9 294 0.0 0.0 0.00 0.00 0.00 48 1011.3
20260904124501 9 294 0.0 0.0 0.00 0.00 0.00 49 1011.2
20260904123111 9 294 0.0 0.0 0.00 0.00 0.00 50 1011.1
20260904121657 10 294 0.0 0.0 0.00 0.00 0.00 49 1011.1
20260904120055 10 294 0.0 0.0 0.00 0.00 0.00 50 1011.3
20260904114555 10 294 0.0 0.0 0.00 0.00 0.00 48 1011.2
20260904113056 10 294 0.0 0.0 0.00 0.00 0.00 46 1011.3
20260904111553 10 294 0.0 0.0 0.00 0.00 0.00 44 1011.3
20260904110052 10 294 0.0 0.0 0.00 0.00 0.00 41 1011.3
20260904104552 10 294 0.0 0.0 0.00 0.00 0.00 38 1011.3
20260904103052 10 294 0.0 0.0 0.00 0.00 0.00 36 1011.2
20260904101549 10 294 0.0 0.0 0.00 0.00 0.00 34 1011.3
20260904100049 10 294 0.0 0.0 0.00 0.00 0.00 35 1011.3
20260904094547 10 294 0.0 0.0 0.00 0.00 0.00 36 1011.3
20260904093052 10 294 0.0 0.0 0.00 0.00 0.00 35 1011.3
20260904091543 10 294 0.0 0.0 0.00 0.00 0.00 38 1011.2
20260904090048 10 294 0.0 0.0 0.00 0.00 0.00 40 1011.4
20260904084538 10 294 0.0 0.0 0.00 0.00 0.00 44 1011.5
20260904083037 10 294 0.0 0.0 0.00 0.00 0.00 48 1011.8
20260904081533 10 294 0.0 0.0 0.00 0.00 0.00 49 1011.8
20260904080046 10 294 0.0 0.0 0.00 0.00 0.00 51 1011.9
20260904074533 10 294 0.0 0.0 0.00 0.00 0.00 48 1011.8
20260904073035 10 294 0.0 0.0 0.00 0.00 0.00 52 1011.9
20260904071526 10 294 0.0 0.0 0.00 0.00 0.00 51 1011.8
20260904070024 10 294 0.0 0.0 0.00 0.00 0.00 52 1011.7
20260904064524 10 294 0.0 0.0 0.00 0.00 0.00 55 1011.6
20260904063024 11 294 0.0 0.0 0.00 0.00 0.00 59 1011.6
20260904061525 11 294 0.0 0.0 0.00 0.00 0.00 64 1011.6
20260904060023 11 294 0.0 0.0 0.00 0.00 0.00 62 1011.5
20260904054522 11 294 0.0 0.0 0.00 0.00 0.00 66 1011.7
20260904053023 12 294 0.0 0.0 0.00 0.00 0.00 69 1011.5
20260904051529 12 294 0.0 0.0 0.00 0.00 0.00 74 1011.5
20260904050021 13 294 0.0 0.0 0.00 0.00 0.00 75 1011.5
20260904044534 13 294 0.0 0.0 0.00 0.00 0.00 75 1011.5
20260904043020 13 294 0.0 0.0 0.00 0.00 0.00 74 1011.4
20260904041532 13 294 0.0 0.0 0.00 0.00 0.00 73 1011.5
20260904040018 14 294 0.0 0.0 0.00 0.00 0.00 72 1011.6
20260904034517 14 294 0.0 0.0 0.00 0.00 0.00 70 1011.5
20260904033017 15 294 0.0 0.0 0.00 0.00 0.00 68 1011.6
20260904031515 16 299 0.0 0.0 0.00 0.00 0.00 65 1011.5
20260904030014 16 299 0.0 0.0 0.00 0.00 0.00 63 1011.3
20260904024514 17 299 0.0 0.0 0.00 0.00 0.00 62 1011.1
20260904023013 17 299 0.0 0.0 0.00 0.00 0.00 62 1011.0
20260904021516 18 299 0.0 0.0 0.00 0.00 0.00 62 1011.0
20260904020012 18 299 0.0 0.0 0.00 0.00 0.00 61 1010.9
20260904014511 19 306 0.0 0.0 0.00 0.00 0.00 60 1011.0
20260904013010 20 298 0.0 0.0 0.00 0.00 0.00 58 1011.1
20260904011508 20 308 0.0 14.5 0.00 0.00 0.00 56 1011.1
20260904010007 21 317 0.0 17.7 0.00 0.00 0.00 54 1011.1
20260904004508 21 311 0.0 14.5 0.00 0.00 0.00 50 1011.2
20260904003004 22 298 0.0 11.3 0.00 0.00 0.00 47 1011.2
20260904001502 22 273 0.0 4.8 0.00 0.00 0.00 44 1011.2
20260904000002 22 325 0.0 12.9 0.00 0.00 0.00 43 1011.3